[[{"header":{"parameterUnit":"m.s-1","parameterCategory":1,"la1":30.2991,"la2":30.254,"lo1":-89.0895,"lo2":-89.0444,"dy":0.0017,"dx":0.0017,"nx":28,"ny":28,"refTime":"2023-08-26T09:00:00:Z","depth":0,"parameterNumber":2,"parameterNumberName":"U-component_of_WINDS"},"data":[0,0,0,0,0,0,0,0,0,0,0,0,0,0,0,0,0,0,0,0,0,0,0,0,0,0,0,0,0,0,0,0,0,0,0,0,0,0,0,0,0,0,0,0,0,0,0,0,0,0,0,0,0,0,0,0,0,0,0.747,0.7472,0,0.768,0.7683,0.7685,0.7687,0.7685,0.7682,0.7679,0.7901,0.7909,0.7918,0,0,0,0,0,0,0,0,0,0,0,0,0,0.7075,0.7082,0.747,0.7472,0.7475,0.768,0.7683,0.7686,0.7688,0.7685,0.7681,0.7678,0.7899,0.7908,0.7919,0,0,0,0,0,0,0,0,0,0,0,0,0,0.7262,0.7084,0.7469,0.7501,0.7506,0.7679,0.7683,0.7687,0.7689,0.7685,0.768,0.7677,0.7895,0.7907,0.792,0.8079,0,0,0.7959,0.7964,0,0,0,0,0,0,0,0,0.7252,0.7277,0.7493,0.7499,0.7505,0.7653,0.7625,0.7818,0.769,0.7619,0.7679,0.7675,0.7823,0.7841,0.7889,0.8089,0.8099,0.796,0.7967,0.7973,0.7976,0,0,0,0,0,0,0,0.7239,0.7268,0.7553,0.7497,0.7503,0.7506,0.7528,0.7662,0.7741,0.7625,0.7626,0.765,0.7825,0.7877,0.7895,0.8102,0.7959,0.797,0.7978,0.7983,0.8442,0.8447,0,0,0,0,0,0,0.7218,0.7257,0.7547,0.756,0.7365,0.7516,0.7541,0.761,0.774,0.7755,0.7653,0.765,0.7858,0.788,0.7902,0.8097,0.7973,0.7984,0.7992,0.8438,0.8443,0.8448,0,0,0,0,0,0,0.721,0.7244,0.7538,0.7409,0.7446,0.7527,0.7605,0.7616,0.7668,0.7761,0.7776,0.7692,0.7855,0.7885,0.8034,0.8104,0.799,0.8002,0.8432,0.8439,0.8446,0.8486,0,0,0,0,0,0,0.7199,0.7241,0.7301,0.741,0.7453,0.7665,0.7609,0.7623,0.7689,0.7686,0.7801,0.7816,0.7854,0.8015,0.8047,0.812,0.8011,0.8426,0.8435,0.8444,0.8479,0.8494,0.8506,0,0,0,0,0,0.7184,0.7306,0.7304,0.7339,0.7529,0.7669,0.7694,0.7733,0.7695,0.7757,0.7816,0.7813,0.8091,0.8031,0.8066,0.8144,0.8422,0.8433,0.8443,0.8473,0.8491,0.8506,0,0,0,0,0,0,0.7205,0.732,0.732,0.7479,0.7564,0.7669,0.7748,0.7751,0.785,0.7843,0.789,0.7916,0.8065,0.812,0.805,0.8304,0.8252,0.827,0.8263,0.8281,0.8294,0.8278,0.8022,0,0,0,0,0,0.7228,0.733,0.7426,0.7557,0.76,0.7666,0.7729,0.7752,0.7842,0.7879,0.7949,0.8039,0.8146,0.8217,0.8321,0.8487,0.8512,0.8558,0.8571,0.8582,0.8597,0.8689,0.871,0.8482,0.8482,0.8482,0,0,0.7277,0.7352,0.7414,0.7563,0.7632,0.7738,0.7697,0.7811,0.7891,0.7897,0.8042,0.8097,0.82,0.8358,0.8431,0.8408,0.8665,0.8595,0.8603,0.8613,0.8701,0.8723,0.8742,0.849,0.8488,0.8487,0,0,0.742,0.7487,0.7603,0.7672,0.7775,0.7819,0.7847,0.7952,0.7987,0.8133,0.814,0.8236,0.8421,0.8494,0.8555,0.8725,0.8726,0.8758,0.8829,0.8918,0.8936,0.8952,0.9012,0.9034,0.8772,0.8773,0.8773,0,0.7468,0.7626,0.7664,0.7778,0.7844,0.7851,0.7971,0.8036,0.8169,0.8215,0.8187,0.8418,0.8488,0.8663,0.8704,0.8754,0.8788,0.8745,0.893,0.8946,0.8962,0.902,0.9043,0.8776,0.8775,0.8775,0.8775,0,0.768,0.779,0.7873,0.7998,0.8073,0.8189,0.8246,0.8318,0.8334,0.8381,0.8529,0.8613,0.8735,0.8778,0.8796,0.8956,0.8938,0.8919,0.8868,0.8986,0.9042,0.9064,0.878,0.8779,0.8778,0.8777,0,0,0.7843,0.7986,0.8016,0.8073,0.8187,0.8274,0.8391,0.8507,0.8568,0.866,0.8759,0.8915,0.8897,0.8967,0.8993,0.9071,0.92,0.9043,0.9046,0.9069,0.9382,0.9395,0.942,0.9201,0.9205,0.9209,0.9373,0,0.7998,0.8204,0.8241,0.8421,0.8523,0.8532,0.8634,0.8716,0.8763,0.8858,0.8911,0.902,0.8989,0.9031,0.9108,0.9168,0.9264,0.9157,0.9296,0.93,0.9269,0.9449,0.9464,0.9615,0.9395,0.9399,0.9401,0,0.8206,0.8301,0.8491,0.859,0.8635,0.8726,0.8835,0.8925,0.9019,0.9048,0.9124,0.9142,0.9265,0.9208,0.9379,0.9305,0.9364,0.9402,0.9409,0.9423,0.9358,0.9469,0.9664,0.9687,0.9436,0.9433,0.9431,0,0.8305,0.848,0.8616,0.8665,0.8785,0.8848,0.8902,0.8991,0.9058,0.9155,0.9199,0.9309,0.937,0.9455,0.9502,0.9456,0.967,0.9617,0.9698,0.9697,0.9743,0.974,0.995,0.9781,0.9781,0.978,0.978,0,0.8475,0.8591,0.8662,0.8746,0.8876,0.8918,0.9047,0.9099,0.9179,0.9274,0.9289,0.9378,0.9435,0.9533,0.957,0.9706,0.9734,0.9761,0.977,0.976,0.9756,0.9799,0.979,0.9786,0.9785,0.9784,0.9783,0,0.8608,0.866,0.8809,0.891,0.8938,0.9029,0.9117,0.9199,0.9245,0.9366,0.9396,0.947,0.9586,0.9641,0.9785,0.9811,0.9965,0.9966,0.9932,0.9936,1.0014,1.0005,1.026,1.0295,1.0102,1.0104,1.0106,0,0.8712,0.8801,0.8911,0.8974,0.9029,0.9132,0.92,0.9245,0.9316,0.9429,0.9498,0.9614,0.9709,0.9894,0.9961,1.0072,1.0076,1.0158,1.0093,1.008,1.0078,1.0071,1.0081,1.0169,1.0171,1.0173,1.0174,0,0.8892,0.8913,0.901,0.9116,0.9197,0.9283,0.9368,0.942,0.9479,0.9558,0.9675,0.9749,0.9895,1.001,1.0125,1.0182,1.0189,1.0194,1.0218,1.0209,1.0185,1.0199,0.9964,1.0188,1.0186,1.0185,1.0185,1.0184,0.9014,0.9093,0.9182,0.929,0.9358,0.9437,0.9519,0.9575,0.9673,0.9794,0.9815,0.994,1.0032,1.0186,1.0247,1.0346,1.0327,1.0363,1.0372,1.038,1.0384,1.0169,1.0367,1.0367,1.0367,1.0366,1.0366,0,0.9194,0.9251,0.935,0.9467,0.9552,0.9548,0.9642,0.9714,0.9823,0.9907,0.9999,1.0135,1.0246,1.0322,1.0435,1.0501,1.0506,1.0529,1.0525,1.0537,1.0395,1.0362,1.0522,1.0522,1.0522,1.0522,1.0522,1.0522,0.9297,0.9431,0.9463,0.9631,0.9689,0.981,0.9863,0.9937,1.0004,1.0153,1.0245,1.0293,1.0374,1.0493,1.0596,1.0616,1.0657,1.068,1.0699,1.0564,1.0548,1.0532,1.0501,1.0688,1.0688,1.0833,1.0834,1.0835]},{"header":{"parameterUnit":"m.s-1","parameterCategory":1,"la1":30.2991,"la2":30.254,"lo1":-89.0895,"lo2":-89.0444,"dy":0.0017,"dx":0.0017,"nx":28,"ny":28,"refTime":"2023-08-26T09:00:00:Z","depth":0,"parameterNumber":3,"parameterNumberName":"V-component_of_WINDS"},"data":[0,0,0,0,0,0,0,0,0,0,0,0,0,0,0,0,0,0,0,0,0,0,0,0,0,0,0,0,0,0,0,0,0,0,0,0,0,0,0,0,0,0,0,0,0,0,0,0,0,0,0,0,0,0,0,0,0,0,1.7199,1.72,0,1.729,1.7291,1.7292,1.7218,1.7215,1.7212,1.7209,1.7304,1.7309,1.7315,0,0,0,0,0,0,0,0,0,0,0,0,0,1.696,1.6965,1.7199,1.72,1.7201,1.729,1.7291,1.7292,1.7218,1.7215,1.7211,1.7207,1.7302,1.7309,1.7315,0,0,0,0,0,0,0,0,0,0,0,0,0,1.7059,1.6967,1.7199,1.7175,1.7174,1.7289,1.7291,1.7293,1.7219,1.7214,1.721,1.7205,1.73,1.7308,1.7316,1.7461,0,0,1.7341,1.7345,0,0,0,0,0,0,0,0,1.7054,1.7068,1.7177,1.7177,1.7176,1.7238,1.7242,1.7349,1.722,1.7202,1.7208,1.7203,1.7286,1.7295,1.7322,1.7465,1.7469,1.7342,1.7347,1.735,1.7353,0,0,0,0,0,0,0,1.7047,1.7064,1.7235,1.7179,1.7178,1.7159,1.7168,1.7262,1.7269,1.7203,1.7198,1.721,1.7285,1.7315,1.7324,1.7471,1.7342,1.7349,1.7354,1.7357,1.7731,1.7736,0,0,0,0,0,0,1.7042,1.7058,1.7232,1.7238,1.7102,1.7167,1.7177,1.7223,1.7268,1.727,1.7214,1.7206,1.7303,1.7315,1.7327,1.7496,1.735,1.7358,1.7363,1.7726,1.7732,1.7738,0,0,0,0,0,0,1.7037,1.7058,1.7228,1.7147,1.7167,1.7177,1.7228,1.7227,1.7257,1.7276,1.7277,1.7243,1.73,1.7316,1.7427,1.7498,1.7362,1.7369,1.772,1.7728,1.7735,1.7837,0,0,0,0,0,0,1.7031,1.7057,1.7113,1.7148,1.7171,1.7328,1.7232,1.7232,1.7271,1.7262,1.7304,1.7306,1.7297,1.7415,1.7435,1.7507,1.7376,1.7714,1.7724,1.7733,1.7827,1.7847,1.7864,0,0,0,0,0,1.7023,1.714,1.7116,1.7138,1.7241,1.7332,1.7345,1.7332,1.7277,1.7332,1.7344,1.7305,1.7487,1.7427,1.7449,1.7525,1.7709,1.7721,1.7732,1.7819,1.7843,1.7864,0,0,0,0,0,0,1.7116,1.7145,1.7119,1.7251,1.7289,1.7319,1.7389,1.7358,1.7414,1.7403,1.7384,1.7394,1.751,1.7529,1.7461,1.7664,1.7589,1.7606,1.7648,1.7671,1.7689,1.7682,1.7382,0,0,0,0,0,1.7151,1.7222,1.7243,1.7358,1.7378,1.738,1.7419,1.7405,1.7444,1.7461,1.748,1.752,1.7585,1.763,1.7691,1.7829,1.7835,1.7892,1.791,1.7925,1.7939,1.8009,1.8033,1.7775,1.7775,1.7774,0,0,1.7226,1.725,1.7297,1.7377,1.7405,1.7477,1.7395,1.7477,1.753,1.7473,1.7578,1.7594,1.7636,1.776,1.7816,1.7779,1.8012,1.7939,1.7951,1.7957,1.8023,1.8047,1.8069,1.7782,1.7781,1.778,0,0,1.7399,1.7426,1.7522,1.755,1.7592,1.7592,1.7615,1.7649,1.7656,1.7761,1.7718,1.7781,1.7896,1.7926,1.7957,1.8135,1.8101,1.8156,1.8252,1.8321,1.8341,1.8359,1.842,1.8442,1.817,1.8171,1.8171,0,1.7487,1.7595,1.7576,1.7659,1.7694,1.7643,1.7739,1.7768,1.7829,1.7854,1.7811,1.795,1.7976,1.8104,1.8147,1.8174,1.8198,1.8152,1.8339,1.8357,1.8374,1.8431,1.8455,1.8177,1.8176,1.8175,1.8175,0,1.7699,1.7774,1.7846,1.7903,1.7946,1.8036,1.8029,1.8075,1.8056,1.8059,1.8164,1.8192,1.8256,1.8286,1.827,1.8411,1.8386,1.8342,1.8266,1.8405,1.8458,1.8481,1.8186,1.8184,1.8182,1.818,0,0,1.7937,1.7977,1.8004,1.8027,1.8068,1.8125,1.821,1.8271,1.8309,1.8352,1.8422,1.8517,1.8475,1.8509,1.8495,1.8555,1.869,1.8503,1.8504,1.8535,1.8843,1.8875,1.8901,1.8667,1.8671,1.8674,1.8839,0,1.8109,1.8257,1.8239,1.838,1.8447,1.8397,1.8471,1.8503,1.8507,1.8564,1.8569,1.8636,1.8577,1.8596,1.8654,1.8662,1.8752,1.865,1.873,1.8733,1.872,1.893,1.8965,1.9119,1.886,1.8863,1.8866,0,1.8331,1.8378,1.8525,1.855,1.8577,1.8644,1.8695,1.8751,1.8785,1.8783,1.8819,1.8793,1.8877,1.8799,1.8912,1.8843,1.8874,1.8882,1.8888,1.8895,1.8808,1.894,1.9168,1.9191,1.89,1.8897,1.8894,0,1.8486,1.8586,1.8685,1.8707,1.874,1.8787,1.8803,1.8832,1.8868,1.8913,1.8935,1.8991,1.9021,1.9063,1.9051,1.8996,1.9166,1.9088,1.9166,1.9166,1.9204,1.9202,1.9439,1.9227,1.9226,1.9226,1.9225,0,1.868,1.8772,1.8755,1.8816,1.8915,1.8893,1.8992,1.9002,1.9027,1.9087,1.9048,1.9106,1.9088,1.9144,1.9135,1.9228,1.9243,1.9243,1.9239,1.9246,1.9246,1.9266,1.9255,1.9232,1.9231,1.923,1.9228,0,1.8871,1.8864,1.8968,1.8988,1.8995,1.9068,1.9084,1.9141,1.914,1.9217,1.9234,1.9234,1.9298,1.9289,1.9362,1.9356,1.947,1.9455,1.9459,1.9455,1.9532,1.9524,1.979,1.9822,1.959,1.9593,1.9594,0,1.8995,1.9063,1.9089,1.9126,1.9144,1.9206,1.9241,1.922,1.9259,1.9299,1.935,1.9409,1.9456,1.956,1.9566,1.9619,1.9604,1.9693,1.9612,1.9615,1.9602,1.9598,1.9603,1.9709,1.9712,1.9714,1.9716,0,1.9215,1.9207,1.9259,1.9308,1.935,1.9389,1.9424,1.9456,1.9439,1.9483,1.9547,1.9583,1.9653,1.9712,1.9762,1.9777,1.9743,1.974,1.9761,1.9768,1.9767,1.9766,1.9501,1.9735,1.9733,1.9732,1.9731,1.973,1.9375,1.9431,1.9457,1.9515,1.9538,1.957,1.9622,1.9626,1.9678,1.9733,1.9718,1.9789,1.9816,1.9879,1.9899,1.9953,1.992,1.9951,1.9958,1.9966,1.9973,1.9758,1.9962,1.9962,1.9961,1.9961,1.996,0,1.9591,1.9603,1.9657,1.9704,1.9749,1.971,1.9745,1.9785,1.9848,1.9875,1.992,1.9991,2.0047,2.0055,2.0107,2.0148,2.0134,2.0163,2.0159,2.0162,2.0001,1.9977,2.0173,2.0173,2.0173,2.0173,2.0173,2.0173,1.9708,1.98,1.9794,1.9896,1.9908,1.9976,1.9998,2.0026,2.0048,2.0128,2.0173,2.0177,2.0196,2.0248,2.0296,2.0297,2.0317,2.0352,2.0346,2.0196,2.0174,2.0154,2.0131,2.0357,2.0357,2.0503,2.0504,2.0505]}]]